Regional Weather Roundup
Issued by NWS Cleveland, OH

Home | Current Version | Previous Version | Text Only | Print | Product List | Glossary Off
Versions: 1 2 3 4 5 6 7 8 9 10 11 12 13 14 15 16 17 18 19 20 21 22 23 24 25 26 27 28 29 30 31 32 33 34 35 36 37 38 39 40 41 42 43 44 45 46 47 48 49 50

000
ASUS41 KCLE 250212
RWRCLE
OHIO REGIONAL WEATHER ROUNDUP
NATIONAL WEATHER SERVICE WILMINGTON, OH
1000 PM EDT SAT SEP 24 2016

NOTE: "FAIR" INDICATES FEW OR NO CLOUDS BELOW 12,000 FEET WITH NO
SIGNIFICANT WEATHER AND/OR OBSTRUCTIONS TO VISIBILITY.

OHZ001>008-015>018-024>027-034-035-043-044-250300-
   NORTHWEST OHIO

CITY           SKY/WX    TMP DP  RH WIND       PRES   REMARKS
DEFIANCE       FAIR      63  54  72 E6        30.19R
FINDLAY        FAIR      63  52  67 E10       30.18S
TOLEDO EXPRESS FAIR      57  55  93 CALM      30.19S
TOLEDO EXEC    FAIR      59  54  83 E3        30.21R
LIMA           FAIR      62  56  80 NE9       30.18R
$$

OHZ009>014-019>023-028>033-038-089-250300-
   NORTHEAST OHIO

CITY           SKY/WX    TMP DP  RH WIND       PRES   REMARKS
CLE-HOPKINS    FAIR      62  45  53 E9        30.23R
CLE-LAKEFRONT  FAIR      62  47  57 E8        30.21R
CUY CO. ARPT   CLEAR     57  50  77 SE6       30.23R
LORAIN-ELYRIA  FAIR      55  49  80 CALM      30.21S
ASHTABULA      FAIR      49  48  97 CALM      30.24R
AKRON-CANTON   FAIR      57  47  69 NE10      30.21R
WOOSTER        FAIR      57  51  80 NE7       30.21R
MANSFIELD      FAIR      58  52  80 NE7       30.20S
YOUNGSTOWN     FAIR      54  48  80 NE9       30.21R
$$

OHZ042-051>053-060>062-070>072-077>081-250300-
  SOUTHWEST OHIO

CITY           SKY/WX    TMP DP  RH WIND       PRES   REMARKS
CINC-COVINGTON FAIR      76  67  73 NE9       30.12R
CINC-LUNKEN    FAIR      69  69 100 CALM      30.12R
HAMILTON       FAIR      67  65  93 CALM      30.13R
DAYTON         FAIR      67  61  81 NE9       30.16R
WRIGHT-PAT AFB CLEAR     68  62  80 NE8       30.14R
DAYTON GENERAL FAIR      69  62  78 NE5       30.13S
WILMINGTON     FAIR      68  62  81 NE5       30.14R
$$

OHZ036-037-039>041-045>050-054>059-063>069-073>076-082>088-250300-
  CENTRAL AND SOUTHEAST OHIO

CITY           SKY/WX    TMP DP  RH WIND       PRES   REMARKS
COLUMBUS       FAIR      67  59  75 NE3       30.15R
OSU AIRPORT    FAIR      66  58  75 NE6       30.16R
BOLTON FIELD   FAIR      68  59  73 NE7       30.16S
RICKENBACK AFB FAIR      65  59  82 NE6       30.15R
NEWARK         FAIR      66  57  72 N3        30.16R
MARION         FAIR      60  52  74 NE8       30.19R
LANCASTER      FAIR      65  58  78 CALM      30.15R
ZANESVILLE     FAIR      65  55  70 NE3       30.16R
NEW PHILLY     FAIR      63  50  62 CALM      30.19R
$$




USA.gov is the U.S. government's official web portal to all federal, state and local government web resources and services.